Date String (YYYY-MM-DD hh:mm:ss) UTC,Instrument flags,absolute air pressure of the measurement (hPa),sample flow rate (lpm),inlet stack bypass flow (lpm),air temperature of the measurement (°C),ambient temperature measured by the external sensor (°C),aerosol sample conditioner tube jacket temperature (°C),OPC LED temperature (°C),internal box temperature (°C),relative humidity of the measurement (%),span deviation,mass concentration of particles derived from Lorenz-Mie calculation of OPC scattering (μg/m³),mass concentration of particles derived from Lorenz-Mie calculation of OPC scattering (μg/m³),mass concentration of particles derived from Lorenz-Mie calculation of OPC scattering (μg/m³)
DateTimeUTC,F1_M11,P_M11,Q1_M11,Q2_M11,T1_M11,T2_M11,T3_M11,T4_M11,T5_M11,U1_M11,ZSPAN_M11,X0_M11,X2_M11,X1_M11
2023-09-26 15:00:00,SystemResetWarning,0835.8,5.00,000.00,028.7,025.4,000.0,037.2,030.0,12.3,0000.0,0011.95,0004.64,0003.87
2023-09-26 15:01:00,SystemResetWarning,0835.8,5.00,000.00,028.6,025.8,000.0,037.2,030.1,12.7,0000.0,0012.21,0004.68,0003.87
2023-09-26 15:02:00,SystemResetWarning,0835.8,5.00,000.00,028.6,026.1,000.0,037.2,030.1,12.8,0000.0,0012.15,0004.68,0003.85
2023-09-26 15:03:00,SystemResetWarning,0835.8,5.00,000.00,028.6,026.4,000.0,037.1,030.1,12.7,0000.0,0012.21,0004.68,0003.85
2023-09-26 15:04:00,SystemResetWarning,0835.8,5.00,000.00,028.6,026.6,000.0,037.1,030.1,13.0,0000.0,0011.82,0004.67,0003.84
2023-09-26 15:05:00,SystemResetWarning,0835.8,5.00,000.00,028.6,026.8,000.0,037.1,030.2,12.7,0000.0,0011.64,0004.63,0003.83
2023-09-26 15:06:00,SystemResetWarning,0835.8,4.99,000.00,028.6,026.9,000.0,037.1,030.2,12.9,0000.0,0012.41,0004.61,0003.83
2023-09-26 15:07:00,SystemResetWarning,0835.8,5.00,000.00,028.6,027.1,000.0,037.1,030.3,12.9,0000.0,0013.14,0004.60,0003.82
2023-09-26 15:08:00,SystemResetWarning,0835.8,5.00,000.00,028.7,027.2,000.0,037.1,030.3,13.3,0000.0,0013.49,0004.63,0003.82
2023-09-26 15:09:00,SystemResetWarning,0835.8,4.99,000.00,028.7,027.3,000.0,037.1,030.3,13.0,0000.0,0013.34,0004.61,0003.81
2023-09-26 15:10:00,SystemResetWarning,0835.9,4.99,000.00,028.7,027.4,000.0,037.1,030.4,13.0,0000.0,0012.73,0004.57,0003.80
2023-09-26 15:11:00,SystemResetWarning,0835.9,4.99,000.00,028.7,027.5,000.0,037.1,030.4,13.1,0000.0,0013.22,0004.59,0003.80
2023-09-26 15:12:00,SystemResetWarning,0835.9,5.00,000.00,028.7,027.5,000.0,037.1,030.4,13.0,0000.0,0013.41,0004.61,0003.81
2023-09-26 15:13:00,SystemResetWarning,0835.8,5.00,000.00,028.8,027.6,000.0,037.1,030.5,13.1,0000.4,0013.63,0004.59,0003.81
2023-09-26 15:14:00,SystemResetWarning,0835.8,5.00,000.00,028.8,027.6,000.0,037.2,030.5,13.0,0000.5,0013.57,0004.58,0003.81
2023-09-26 15:15:00,SystemResetWarning,0835.8,5.00,000.00,028.8,027.7,000.0,037.2,030.5,13.8,0001.0,0014.02,0004.67,0003.83
2023-09-26 15:16:00,SystemResetWarning,0835.8,4.99,000.00,028.8,027.7,000.0,037.2,030.6,13.7,0000.9,0014.08,0004.65,0003.82
2023-09-26 15:17:00,SystemResetWarning,0835.8,4.99,000.00,028.9,027.8,000.0,037.2,030.6,13.8,0001.0,0012.97,0004.63,0003.81
2023-09-26 15:18:00,SystemResetWarning,0835.9,5.00,000.00,028.9,027.8,000.0,037.2,030.6,13.4,0001.6,0012.00,0004.67,0003.82
2023-09-26 15:19:00,SystemResetWarning,0835.9,5.00,000.00,028.9,027.8,000.0,037.3,030.7,13.6,0002.1,0011.89,0004.67,0003.82
2023-09-26 15:20:00,SystemResetWarning,0835.9,5.00,000.00,028.9,027.8,000.0,037.3,030.7,14.3,0001.5,0012.16,0004.71,0003.83
2023-09-26 15:21:00,SystemResetWarning,0835.9,4.99,000.00,028.9,026.5,000.0,037.2,030.7,14.6,0001.3,0013.14,0004.76,0003.84
2023-09-26 15:22:00,SystemResetWarning,0835.8,5.01,000.00,028.9,024.9,000.0,037.2,030.5,14.4,0001.7,0012.85,0004.81,0003.85
2023-09-26 15:23:00,SystemResetWarning,0835.8,5.01,000.00,028.8,024.8,000.0,037.1,030.3,14.4,0002.5,0013.05,0004.80,0003.85
2023-09-26 15:24:00,SystemResetWarning,0835.8,4.99,000.00,028.7,025.1,000.0,037.2,030.1,14.5,0003.3,0013.41,0004.83,0003.86
2023-09-26 15:25:00,SystemResetWarning,0835.9,4.99,000.00,028.6,025.4,000.0,037.1,030.0,14.8,0003.3,0013.78,0004.84,0003.85
2023-09-26 15:26:00,SystemResetWarning,0835.9,5.00,000.00,028.6,025.8,000.0,037.1,030.0,14.6,0002.9,0013.87,0004.76,0003.85
2023-09-26 15:27:00,SystemResetWarning,0835.9,5.02,000.00,028.6,026.1,000.0,037.1,030.1,13.7,0002.2,0013.86,0004.77,0003.85
2023-09-26 15:28:00,SystemResetWarning,0835.9,5.00,000.00,028.6,026.4,000.0,037.1,030.1,13.9,0002.3,0014.30,0004.84,0003.86
2023-09-26 15:29:00,SystemResetWarning,0835.9,5.00,000.00,028.6,026.6,000.0,037.1,030.2,14.4,0002.0,0014.05,0004.82,0003.86
2023-09-26 15:30:00,SystemResetWarning,0835.9,5.00,000.00,028.6,026.8,000.0,037.1,030.2,14.6,0001.1,0013.96,0004.79,0003.87
2023-09-26 15:31:00,SystemResetWarning,0835.9,5.00,000.00,028.6,027.0,000.0,037.1,030.2,14.6,0000.8,0014.90,0004.80,0003.86
2023-09-26 15:32:00,SystemResetWarning,0835.9,5.01,000.00,028.6,027.1,000.0,037.1,030.3,15.0,0001.0,0014.18,0004.74,0003.86
2023-09-26 15:33:00,SystemResetWarning,0835.9,5.00,000.00,028.6,027.3,000.0,037.0,030.3,15.1,0001.4,0014.32,0004.70,0003.86
2023-09-26 15:34:00,SystemResetWarning,0835.9,5.00,000.00,028.7,027.4,000.0,037.1,030.3,15.3,0001.9,0015.55,0004.66,0003.85
2023-09-26 15:35:00,SystemResetWarning,0835.9,5.00,000.00,028.7,027.4,000.0,037.1,030.4,15.3,0002.1,0015.83,0004.65,0003.84
2023-09-26 15:36:00,SystemResetWarning,0835.9,5.00,000.00,028.7,027.5,000.0,037.1,030.4,15.3,0002.0,0015.39,0004.65,0003.84
2023-09-26 15:37:00,SystemResetWarning,0835.9,5.00,000.00,028.7,027.6,000.0,037.1,030.5,15.2,0002.3,0014.40,0004.68,0003.85
2023-09-26 15:38:00,SystemResetWarning,0835.9,5.01,000.00,028.8,027.7,000.0,037.1,030.5,15.0,0002.8,0014.98,0004.76,0003.86
2023-09-26 15:39:00,SystemResetWarning,0835.9,5.00,000.00,028.8,027.7,000.0,037.1,030.5,15.4,0003.2,0015.59,0004.79,0003.86
2023-09-26 15:40:00,SystemResetWarning,0835.9,4.99,000.00,028.8,027.8,000.0,037.2,030.6,15.3,0003.6,0015.97,0004.79,0003.87
2023-09-26 15:41:00,SystemResetWarning,0835.9,4.99,000.00,028.9,027.8,000.0,037.2,030.6,15.3,0003.9,0016.80,0004.82,0003.88
2023-09-26 15:42:00,SystemResetWarning,0835.9,5.00,000.00,028.9,027.0,000.0,037.2,030.6,15.2,0004.0,0015.69,0004.81,0003.87
2023-09-26 15:43:00,SystemResetWarning,0835.9,5.00,000.00,028.8,025.2,000.0,037.1,030.4,15.2,0004.0,0015.36,0004.84,0003.88
2023-09-26 15:44:00,SystemResetWarning,0835.9,5.01,000.00,028.7,024.7,000.0,037.1,030.3,15.3,0003.9,0015.97,0004.88,0003.87
2023-09-26 15:45:00,SystemResetWarning,0835.9,5.01,000.00,028.6,024.9,000.0,037.1,030.1,15.3,0003.6,0014.38,0004.91,0003.88
2023-09-26 15:46:00,SystemResetWarning,0835.9,4.99,000.00,028.5,025.2,000.0,037.0,030.0,15.4,0003.2,0013.46,0004.91,0003.90
2023-09-26 15:47:00,SystemResetWarning,0836.0,5.00,000.00,028.5,025.6,000.0,037.0,029.9,15.3,0003.2,0012.88,0004.95,0003.90
2023-09-26 15:48:00,SystemResetWarning,0836.0,5.01,000.00,028.5,025.9,000.0,037.0,030.0,14.9,0002.9,0013.26,0004.94,0003.89
2023-09-26 15:49:00,SystemResetWarning,0835.9,5.01,000.00,028.5,026.2,000.0,037.0,030.0,15.5,0002.3,0013.54,0004.98,0003.89
2023-09-26 15:50:00,SystemResetWarning,0835.9,5.00,000.00,028.5,026.5,000.0,037.0,030.1,15.8,0002.7,0013.65,0004.99,0003.90
2023-09-26 15:51:00,SystemResetWarning,0835.9,5.00,000.00,028.5,026.7,000.0,037.0,030.1,15.2,0000.0,0013.94,0005.00,0003.90
2023-09-26 15:52:00,SystemResetWarning,0835.9,5.00,000.00,028.5,026.9,000.0,037.0,030.2,15.7,0000.5,0013.50,0005.03,0003.90
2023-09-26 15:53:00,SystemResetWarning,0835.9,5.00,000.00,028.5,027.1,000.0,037.0,030.2,16.4,0000.0,0013.50,0005.06,0003.90
2023-09-26 15:54:00,SystemResetWarning,0835.9,5.00,000.00,028.6,027.2,000.0,037.0,030.2,16.3,0000.0,0013.57,0005.08,0003.90
2023-09-26 15:55:00,SystemResetWarning,0835.9,5.00,000.00,028.6,027.3,000.0,037.0,030.3,16.4,0000.0,0013.83,0005.11,0003.92
2023-09-26 15:56:00,SystemResetWarning,0835.9,5.00,000.00,028.6,027.4,000.0,037.0,030.3,16.4,0000.0,0013.97,0005.18,0003.93
2023-09-26 15:57:00,SystemResetWarning,0835.9,5.00,000.00,028.7,027.5,000.0,037.0,030.4,16.3,0000.0,0014.72,0005.26,0003.93
2023-09-26 15:58:00,SystemResetWarning,0835.9,5.00,000.00,028.7,027.6,000.0,037.0,030.4,16.3,0000.0,0014.91,0005.27,0003.93
2023-09-26 15:59:00,SystemResetWarning,0835.9,5.00,000.00,028.7,027.6,000.0,037.0,030.5,16.1,0000.0,0015.50,0005.28,0003.94
